Oscoda, MI

5:12 AM EST on December 13, 2017 (GMT -0500)
Oscoda-Wurtsmith

Weather History for KOSC - August, 2013

Change the Weather History Date:

Tuesday, August 13, 2013

  Actual Average Record
Temperature  
Mean Temperature 58 °F -  
Max Temperature 66 °F 75 °F 89 °F (2015)
Min Temperature 50 °F 55 °F 46 °F (1998)
Degree Days  
Heating Degree Days 6    
Growing Degree Days 8 (Base 50)    
Moisture  
Dew Point 46 °F    
Average Humidity 66    
Maximum Humidity 91    
Minimum Humidity 42    
Precipitation  
Precipitation 0.00 in - - ()
Sea Level Pressure  
Sea Level Pressure 29.96 in    
Wind  
Wind Speed 11 mph (NW)    
Max Wind Speed 20 mph    
Max Gust Speed 26 mph    
Visibility 10 miles    
Events      
Averages and records for this station are not official NWS values.
T = Trace of Precipitation, MM = Missing Value Source: NWS Daily Summary

Daily Weather History Graph

Daily Weather History Graph

Search for Another Location

Airport or City:

Trip Planner

Search our weather history database for the weather conditions in past years. The results will help you decide how hot, cold, wet, or windy it might be!

Date:

Astronomy

Aug. 13, 2013 Rise Set
Actual Time 6:34 AM EDT 8:41 PM EDT
Civil Twilight 6:02 AM EDT 9:13 PM EDT
Nautical Twilight 5:23 AM EDT 9:52 PM EDT
Astronomical Twilight 4:39 AM EDT 10:35 PM EDT
Moon 1:46 PM EDT 11:56 PM EDT
Length of Visible Light 15h 10m
Length of Day
14h 07m
Waxing Crescent, 41% of the Moon is Illuminated
Aug 13
Waxing Crescent
Aug 14
First Quarter
Aug 20
Full
Aug 28
Last Quarter
Sep 5
New

Hourly Weather History & Observations

Time (EDT) Temp. Dew Point Humidity Pressure Visibility Wind Dir Wind Speed Gust Speed Precip Events Conditions
12:14 AM 62.6 °F 59.4 °F 89% 29.87 in 10.0 mi North 3.5 mph - N/A   Overcast
12:34 AM 61.7 °F 59.0 °F 91% 29.88 in 10.0 mi WNW 3.5 mph - N/A   Overcast
12:54 AM 62.2 °F 59.0 °F 89% 29.87 in 10.0 mi North 5.8 mph - N/A   Overcast
1:14 AM 62.2 °F 57.6 °F 85% 29.88 in 10.0 mi NNW 12.7 mph - N/A   Overcast
1:33 AM 61.7 °F 53.2 °F 74% 29.88 in 10.0 mi NNW 15.0 mph 20.7 mph N/A   Overcast
1:54 AM 60.8 °F 53.1 °F 76% 29.88 in 10.0 mi NNW 15.0 mph 18.4 mph N/A   Overcast
2:14 AM 58.5 °F 51.4 °F 77% 29.88 in 10.0 mi NW 15.0 mph 18.4 mph N/A   Mostly Cloudy
2:33 AM 57.4 °F 50.0 °F 76% 29.88 in 10.0 mi NNW 12.7 mph 20.7 mph N/A   Scattered Clouds
2:54 AM 56.5 °F 50.0 °F 79% 29.88 in 10.0 mi NNW 12.7 mph - N/A   Clear
3:14 AM 56.3 °F 49.1 °F 77% 29.88 in 10.0 mi NW 10.4 mph 19.6 mph N/A   Clear
3:33 AM 55.6 °F 49.1 °F 79% 29.88 in 10.0 mi NW 12.7 mph - N/A   Scattered Clouds
3:54 AM 55.4 °F 49.1 °F 79% 29.88 in 10.0 mi NW 9.2 mph - N/A   Scattered Clouds
4:14 AM 56.3 °F 49.3 °F 77% 29.88 in 10.0 mi NW 12.7 mph 18.4 mph N/A   Overcast
4:33 AM 56.5 °F 49.3 °F 77% 29.88 in 10.0 mi NW 9.2 mph - N/A   Overcast
4:54 AM 56.7 °F 48.7 °F 75% 29.88 in 10.0 mi NNW 12.7 mph 16.1 mph N/A   Overcast
5:14 AM 56.3 °F 47.3 °F 72% 29.89 in 10.0 mi NNW 16.1 mph 24.2 mph N/A   Overcast
5:33 AM 56.1 °F 46.4 °F 70% 29.89 in 10.0 mi NNW 16.1 mph 23.0 mph N/A   Overcast
5:54 AM 55.8 °F 46.6 °F 71% 29.89 in 10.0 mi NNW 18.4 mph - N/A   Overcast
6:14 AM 55.8 °F 46.6 °F 71% 29.90 in 10.0 mi NNW 13.8 mph 18.4 mph N/A   Overcast
6:33 AM 55.4 °F 45.5 °F 69% 29.91 in 10.0 mi NNW 13.8 mph 21.9 mph N/A   Overcast
6:54 AM 54.5 °F 45.5 °F 72% 29.92 in 10.0 mi NNW 12.7 mph 21.9 mph N/A   Mostly Cloudy
7:14 AM 54.7 °F 45.7 °F 72% 29.93 in 10.0 mi NNW 11.5 mph 16.1 mph N/A   Overcast
7:33 AM 54.7 °F 45.7 °F 72% 29.93 in 10.0 mi NNW 8.1 mph - N/A   Overcast
7:54 AM 54.7 °F 45.9 °F 72% 29.94 in 10.0 mi NW 15.0 mph 20.7 mph N/A   Overcast
8:14 AM 54.9 °F 45.7 °F 71% 29.95 in 10.0 mi NNW 12.7 mph - N/A   Overcast
8:34 AM 54.5 °F 45.5 °F 72% 29.95 in 10.0 mi NW 16.1 mph 19.6 mph N/A   Overcast
8:54 AM 55.0 °F 45.5 °F 70% 29.95 in 10.0 mi NNW 13.8 mph 20.7 mph N/A   Overcast
9:14 AM 54.9 °F 45.7 °F 71% 29.96 in 10.0 mi NW 12.7 mph 18.4 mph N/A   Overcast
9:34 AM 55.6 °F 46.0 °F 70% 29.96 in 10.0 mi NNW 11.5 mph - N/A   Overcast
9:54 AM 55.9 °F 45.7 °F 68% 29.97 in 10.0 mi NW 10.4 mph 21.9 mph N/A   Overcast
10:14 AM 57.0 °F 45.1 °F 64% 29.97 in 10.0 mi NNW 13.8 mph 23.0 mph N/A   Overcast
10:34 AM 57.2 °F 45.5 °F 65% 29.97 in 10.0 mi NW 13.8 mph - N/A   Overcast
10:54 AM 60.3 °F 45.5 °F 58% 29.98 in 10.0 mi North 15.0 mph 26.5 mph N/A   Mostly Cloudy
11:14 AM 59.5 °F 45.1 °F 59% 29.98 in 10.0 mi NNW 12.7 mph 18.4 mph N/A   Mostly Cloudy
11:34 AM 60.4 °F 46.0 °F 59% 29.98 in 10.0 mi NW 11.5 mph 17.3 mph N/A   Overcast
11:54 AM 59.9 °F 44.6 °F 57% 29.98 in 10.0 mi NW 13.8 mph 20.7 mph N/A   Overcast
12:13 PM 60.1 °F 43.7 °F 55% 29.98 in 10.0 mi NNW 15.0 mph 21.9 mph N/A   Overcast
12:34 PM 60.8 °F 43.7 °F 53% 29.99 in 10.0 mi NW 16.1 mph 21.9 mph N/A   Overcast
12:54 PM 61.2 °F 43.3 °F 52% 29.98 in 10.0 mi NNW 13.8 mph 20.7 mph N/A   Overcast
1:13 PM 61.9 °F 43.5 °F 51% 29.98 in 10.0 mi NNW 16.1 mph 20.7 mph N/A   Overcast
1:34 PM 61.7 °F 43.0 °F 50% 29.98 in 10.0 mi NW 16.1 mph 23.0 mph N/A   Overcast
1:54 PM 63.3 °F 42.6 °F 47% 29.98 in 10.0 mi NNW 11.5 mph 19.6 mph N/A   Overcast
2:13 PM 65.1 °F 43.0 °F 45% 29.98 in 10.0 mi North 16.1 mph 20.7 mph N/A   Overcast
2:34 PM 64.2 °F 43.5 °F 47% 29.98 in 10.0 mi WNW 15.0 mph 20.7 mph N/A   Mostly Cloudy
2:54 PM 63.1 °F 42.6 °F 47% 29.98 in 10.0 mi NNW 17.3 mph 24.2 mph N/A   Overcast
3:13 PM 65.5 °F 41.7 °F 42% 29.98 in 10.0 mi NW 15.0 mph 21.9 mph N/A   Mostly Cloudy
3:34 PM 66.0 °F 42.8 °F 43% 29.98 in 10.0 mi NW 13.8 mph 20.7 mph N/A   Mostly Cloudy
3:54 PM 63.5 °F 41.4 °F 44% 29.98 in 10.0 mi NNW 15.0 mph 19.6 mph N/A   Overcast
4:13 PM 62.2 °F 42.6 °F 49% 29.98 in 10.0 mi NW 16.1 mph 24.2 mph N/A   Overcast
4:34 PM 61.7 °F 43.2 °F 51% 29.99 in 10.0 mi NW 15.0 mph 21.9 mph N/A   Overcast
4:54 PM 61.9 °F 43.3 °F 51% 29.99 in 10.0 mi WNW 19.6 mph 24.2 mph N/A   Overcast
5:13 PM 59.2 °F 44.4 °F 58% 30.00 in 10.0 mi WNW 11.5 mph 19.6 mph N/A   Overcast
5:34 PM 61.2 °F 44.8 °F 55% 30.00 in 10.0 mi WNW 10.4 mph - N/A   Overcast
5:54 PM 60.3 °F 44.1 °F 55% 30.00 in 10.0 mi NW 12.7 mph 21.9 mph N/A   Overcast
6:14 PM 61.3 °F 44.6 °F 54% 30.00 in 10.0 mi NW 11.5 mph 18.4 mph N/A   Overcast
6:34 PM 60.8 °F 44.4 °F 55% 30.00 in 10.0 mi WNW 13.8 mph 18.4 mph N/A   Overcast
6:53 PM 60.1 °F 44.8 °F 57% 30.00 in 10.0 mi NNW 11.5 mph - N/A   Overcast
7:14 PM 59.9 °F 43.0 °F 54% 30.01 in 10.0 mi NW 15.0 mph - N/A   Overcast
7:34 PM 59.0 °F 43.7 °F 57% 30.01 in 10.0 mi NNW 13.8 mph 21.9 mph N/A   Overcast
7:54 PM 58.5 °F 44.6 °F 60% 30.02 in 10.0 mi NNW 13.8 mph - N/A   Overcast
8:14 PM 57.7 °F 45.3 °F 63% 30.02 in 10.0 mi NW 11.5 mph 19.6 mph N/A   Overcast
8:34 PM 57.2 °F 45.3 °F 65% 30.02 in 10.0 mi NW 8.1 mph 17.3 mph N/A   Overcast
8:54 PM 55.6 °F 45.5 °F 69% 30.02 in 10.0 mi NW 10.4 mph - N/A   Mostly Cloudy
9:14 PM 54.7 °F 45.5 °F 71% 30.02 in 10.0 mi WNW 4.6 mph - N/A   Mostly Cloudy
9:34 PM 53.8 °F 46.2 °F 76% 30.03 in 10.0 mi WNW 6.9 mph - N/A   Overcast
9:53 PM 54.5 °F 46.8 °F 75% 30.03 in 10.0 mi NW 10.4 mph - N/A   Overcast
10:14 PM 54.9 °F 47.1 °F 75% 30.04 in 10.0 mi WNW 9.2 mph - N/A   Overcast
10:34 PM 54.0 °F 47.3 °F 78% 30.04 in 10.0 mi WNW 8.1 mph - N/A   Overcast
10:53 PM 53.2 °F 46.9 °F 79% 30.04 in 10.0 mi WNW 6.9 mph - N/A   Overcast
11:14 PM 53.1 °F 47.1 °F 80% 30.04 in 10.0 mi WNW 6.9 mph - N/A   Overcast
11:34 PM 51.8 °F 46.8 °F 83% 30.04 in 10.0 mi WNW 8.1 mph - N/A   Scattered Clouds
11:53 PM 50.9 °F 46.6 °F 85% 30.05 in 10.0 mi WNW 6.9 mph - N/A   Scattered Clouds